Starlink 5174

operational
NORAD ID: 54067 Int'l Des: 2022-136 Owner: SPXS Country: US Constellation: starlink
LEOCIRCULAR

关于 Starlink 5174

正在加载描述...

实时位置

正在加载3D地球...

即将过境

高度历史

Altitude vs Time

uPlot chart will show altitude changes over time

两行轨道根数

1 54067U 22136S 25351.72739224 .00000228 00000-0 32393-4 0 9994
2 54067 53.2190 351.8371 0001350 89.0460 271.0687 15.08841172174479
Epoch: Dec 17, 2025 • Age: 14 hours

当前状态

高度 539.8 km
速度 7.60 km/s
星下点 20.19°N, 159.66°E
发射日期 Oct 20, 2022
运行时间 3.1 years
类型 internet

技术详情

分类 Payload
质量 305.00 kg
干质量 290.00 kg
总质量 305.00 kg
长度 0.20 m
直径 2.80 m
跨度 9.00 m
形状 Box + pan
制造商 SPXS
平台类型 Starlink
阶段状态 In Orbit
所有者/国家 SPXS/US

大型星座

Loading constellations...